Flag for U.S.A. Weather past 2 weeks in Casper, Wyoming, U.S.A.

Now
66 °F

Sunny.


Feels Like: 66 °F
Forecast: 48 / 70 °F
Wind: 18 mph from Southwest

Location: Natrona County International Airport

Current Time: May 27, 2015 at 12:32:49 PM

Latest Report: May 27, 2015 at 11:53 AM


Visibility: 10 mi

Pressure: 29.89 "Hg

Humidity: 47%

Dew point: 45 °F

Location of CasperLocation

Historic Weather in Casper — Graph

°F

Casper temperature yesterday

Maximum temperature yesterday: 69 °F (at 4:53 PM)
Minimum temperature yesterday: 41 °F (at 3:53 AM)
Average temperature yesterday: 55 °F

Past Weeks' High & Low Weather Summary

 TemperatureHumidityPressure
High72 °F (May 12, 2:53 PM)97% (May 23, 2:53 AM)30.34 "Hg (May 23, 2:53 AM)
Low31 °F (May 20, 12:53 AM)22% (May 12, 2:53 PM)29.57 "Hg (May 15, 12:53 PM)
Average48 °F75%29.93 "Hg
* Reported May 12 10:53 AM — May 27 10:53 AM, Casper, Weather by CustomWeather, © 2015

Note: Actual official high and low records may vary slightly from our data, if they occured in-between our weather recording intervals... More about our weather records

Advertising

Casper weather history for previous 24 hours

 ConditionsComfort  
Time TempWeatherWind HumidityBarometerVisibility
10:53 AM
Wed, May 27
63 °FScattered clouds.20 mph56%29.91 "Hg10 mi
9:53 AM61 °FSunny.20 mph60%29.91 "Hg10 mi
8:53 AM57 °FPassing clouds.13 mph72%29.93 "Hg10 mi
7:53 AM54 °FPartly sunny.17 mph74%29.93 "Hg10 mi
6:53 AM53 °FPartly sunny.5 mph80%29.91 "Hg10 mi
5:53 AM51 °FPassing clouds.9 mph80%29.89 "Hg10 mi
4:53 AM50 °FMostly cloudy.7 mph86%29.88 "Hg10 mi
3:53 AM49 °FPassing clouds.6 mph90%29.90 "Hg10 mi
2:53 AM51 °FOvercast.No wind92%29.89 "Hg10 mi
1:53 AM52 °FOvercast.No wind89%29.90 "Hg10 mi
12:53 AM52 °FOvercast.5 mph89%29.90 "Hg10 mi
11:53 PM
Tue, May 26
52 °FOvercast.6 mph86%29.89 "Hg10 mi
10:53 PM51 °FLight rain. Mostly cloudy.7 mph89%29.91 "Hg10 mi
9:53 PM52 °FLight rain. Overcast.5 mph89%29.93 "Hg9 mi
8:53 PM56 °FLight rain. Cloudy.8 mph67%29.90 "Hg10 mi
7:53 PM57 °FOvercast.16 mph60%29.98 "Hg10 mi
6:53 PM63 °FScattered clouds.No wind52%29.83 "Hg10 mi
5:53 PM67 °FPassing clouds.8 mph44%29.83 "Hg10 mi
4:53 PM69 °FSunny.8 mph41%29.83 "Hg10 mi
3:53 PM66 °FPartly sunny.12 mph42%29.85 "Hg10 mi
2:53 PM67 °FPassing clouds.8 mph42%29.85 "Hg10 mi
1:53 PM62 °FPartly sunny.7 mph54%29.89 "Hg10 mi
12:53 PM66 °FThundershowers. Passing clouds.16 mph49%29.88 "Hg10 mi
Weather by CustomWeather, © 2015

See weather overviewHow to use our weather pages